Dewpoint
33 33 34 35 35 36 37 37 38 39 40 40 40 41 41 41 42 41 37 39 37 33 32 32 32 30 29 29 27 27 27 28 31 26 24 22 20 19 17 18 18 17 16 19 22 19 16 16 13 18 26 38 39 41
33 33 33 33 34 35 35 36 35 36 36 38 39 39 40 40 40 41 37 37 40 37 34 37 36 36 33 32 32 33 31 30 31 29 27 23 21 21 19 17 18 16 17 17 25 21 21 20 25 34 36 36 39 40
34 33 33 33 33 33 33 33 34 35 35 36 37 38 38 39 39 40 39 37 39 34 33 35 33 35 36 36 36 31 33 34 33 33 30 31 26 22 20 20 21 22 21 20 20 24 25 30 28 34 33 34 36 41
34 33 33 33 33 33 33 33 33 33 33 34 35 36 37 38 38 39 37 37 38 35 29 28 30 30 34 36 36 37 36 36 37 36 31 30 25 25 23 25 27 28 31 30 29 26 31 33 30 32 33 34 39 39
35 36 35 35 34 33 33 33 33 33 33 33 33 34 36 37 37 38 39 38 40 35 27 29 32 31 33 33 36 37 37 35 33 30 30 28 29 28 27 26 25 25 25 24 24 31 33 33 31 33 35 38 40 39
36 36 36 36 36 36 35 35 34 33 33 32 33 34 35 36 38 38 34 37 40 40 32 26 31 28 30 37 36 37 39 37 32 31 31 30 28 27 28 27 25 23 26 32 33 31 33 38 37 38 36 40 42 41
30 32 34 35 35 35 35 35 35 35 34 33 33 33 35 36 38 35 30 37 42 40 32 27 26 35 36 36 36 37 37 33 33 31 30 28 27 33 28 24 24 23 24 28 32 35 34 38 36 36 33 38 42 40
29 30 30 30 31 34 35 35 35 35 34 34 34 35 36 36 38 37 38 39 41 37 35 26 26 32 36 33 31 34 31 32 32 32 32 28 27 28 25 23 24 22 21 23 33 36 37 39 40 36 29 36 37 40
27 29 28 30 29 29 32 35 35 34 35 35 35 36 38 36 33 36 37 40 40 35 28 27 21 21 36 33 33 32 32 27 33 29 27 27 26 25 25 21 20 20 28 32 32 37 32 34 34 27 27 29 29 33
27 29 29 30 31 30 28 31 35 34 35 34 35 34 34 35 32 34 34 31 33 35 35 27 24 23 31 30 32 31 31 29 26 28 31 29 25 24 23 23 23 27 32 29 28 28 29 29 29 27 27 27 27 31
28 29 30 30 31 31 30 28 34 35 33 30 33 33 34 32 29 24 28 28 28 28 31 31 30 30 34 28 29 32 30 31 25 29 26 26 22 29 29 29 33 34 35 33 33 32 34 32 29 29 32 32 32 33
27 28 29 29 31 31 31 28 32 33 31 30 31 30 30 30 29 23 23 21 17 16 27 26 28 30 31 33 30 31 28 30 22 32 28 21 28 30 32 33 33 35 35 35 36 37 34 33 33 33 35 36 35 36
27 27 28 29 29 30 31 28 31 32 30 26 29 31 30 26 23 19 16 14 15 21 24 24 24 29 30 29 29 29 25 24 28 27 20 29 29 32 33 34 34 35 36 35 35 35 35 35 35 34 33 33 34 34
27 27 27 29 30 30 31 29 32 30 27 22 24 23 21 19 18 15 13 13 17 23 23 22 24 25 27 27 29 24 27 25 23 20 20 31 30 32 34 36 35 34 33 32 31 31 31 31 31 32 32 33 33 32
28 29 30 30 30 30 32 31 32 28 22 20 18 18 19 17 20 21 24 22 25 24 21 23 23 23 24 26 22 22 23 20 20 23 29 32 31 33 33 33 33 33 32 31 31 31 31 31 31 31 32 32 32 32
31 29 26 28 28 29 29 28 28 28 24 16 16 19 19 21 29 30 31 28 24 25 25 23 19 19 18 17 18 17 16 14 20 29 30 33 33 33 32 32 33 34 33 32 32 32 31 31 30 30 31 31 31 32
27 25 27 28 30 30 29 27 26 27 21 15 18 24 23 26 30 33 31 28 25 23 23 19 17 14 15 15 12 14 12 22 29 28 29 30 33 33 33 32 32 33 32 32 31 31 31 31 31 30 29 30 31 32
24 21 25 31 29 28 25 25 26 19 12 15 17 22 29 27 28 29 30 28 26 22 22 19 19 16 13 8 6 16 27 29 28 28 29 30 32 33 34 34 34 33 32 31 31 31 31 30 29 29 30 30 30 30
20 22 25 24 25 29 20 26 22 13 11 16 19 22 22 26 29 29 29 28 26 22 22 22 20 15 13 15 16 27 31 29 28 28 30 31 32 32 32 32 31 31 30 30 29 29 29 29 28 29 29 29 29 30
27 23 25 27 27 25 23 15 16 18 14 15 18 19 21 23 26 27 28 29 25 23 22 20 18 18 21 24 26 29 31 31 29 28 30 32 31 30 30 30 29 29 28 28 28 27 27 27 28 29 29 30 30 30
25 21 21 24 23 23 17 13 10 14 15 15 18 19 19 23 24 25 26 27 27 24 20 21 22 24 31 33 31 31 33 31 29 28 29 31 33 32 32 30 29 29 28 28 27 27 27 27 27 29 30 31 32 32
22 21 20 23 26 25 23 17 13 11 12 14 15 18 25 23 24 25 26 25 24 24 23 22 23 24 31 31 31 33 32 32 33 32 31 32 32 31 31 30 30 29 28 27 27 27 27 27 27 27 30 30 31 32
24 24 25 23 22 19 16 13 11 11 12 12 13 12 13 19 22 23 21 22 24 26 26 24 24 25 28 29 30 32 31 30 32 32 30 30 30 31 30 29 30 29 27 26 27 28 28 29 29 29 29 27 28 30
28 26 22 16 14 13 11 7 7 11 12 12 11 8 6 16 21 24 23 19 23 26 25 25 26 25 28 30 30 31 31 32 32 31 32 30 29 29 30 29 28 28 28 27 27 29 30 30 30 30 29 28 28 28
22 22 22 17 15 11 8 6 8 8 13 15 12 10 7 12 21 21 20 19 22 24 26 27 27 27 29 30 30 32 33 32 30 30 31 32 31 30 30 29 30 32 32 30 30 30 30 30 30 30 29 28 28 26
15 19 15 11 10 6 5 6 8 8 8 12 15 15 11 10 17 19 19 22 28 30 31 30 29 29 31 31 31 31 32 33 32 33 33 32 31 31 30 30 30 31 34 32 31 30 28 28 29 29 28 28 27 26
13 15 18 19 15 14 11 14 15 11 14 12 13 17 17 13 16 19 23 23 24 25 27 30 32 32 30 30 31 32 33 32 31 31 31 31 31 32 33 31 29 30 33 34 32 31 30 29 28 27 28 29 28 27
13 11 10 14 13 13 16 16 17 15 16 17 16 14 15 13 13 19 21 24 25 25 24 25 28 29 28 29 29 30 30 29 29 29 29 29 29 29 29 29 29 30 30 31 31 32 33 32 31 31 31 30 30 30
14 9 10 11 12 18 17 14 14 14 16 16 15 13 15 18 21 23 24 25 25 24 23 23 23 25 25 25 25 27 30 30 27 26 25 24 24 24 27 28 27 26 27 29 28 29 29 31 31 32 32 32 33 33
8 8 8 7 8 13 17 16 15 18 17 18 18 16 16 17 20 22 23 22 21 21 22 23 24 23 21 20 19 19 22 24 25 28 25 24 22 24 25 24 24 24 24 25 26 27 28 29 29 29 29 30 30 31
10 10 5 5 8 15 14 16 21 18 18 20 18 14 14 17 19 20 22 24 24 22 20 19 19 20 20 20 20 18 17 20 22 23 23 24 23 22 22 22 22 22 22 22 23 23 25 27 28 28 29 29 30 30
11 8 7 5 8 11 13 14 17 17 18 18 18 17 15 13 11 15 19 20 18 17 18 18 17 18 20 20 19 20 19 19 19 19 21 21 20 20 20 21 22 23 23 22 21 21 21 22 26 28 28 29 29 29
7 5 3 5 8 9 13 14 15 14 15 14 15 16 14 12 10 17 20 20 18 17 17 17 18 18 19 18 17 17 17 17 17 17 17 17 18 20 21 22 24 24 25 26 26 26 25 26 25 27 27 27 27 27
Wind_Speed
16 17 18 17 18 17 16 17 17 16 15 15 16 15 14 15 13 11 16 14 16 15 26 28 29 30 25 21 28 26 20 14 12 18 14 16 18 19 26 34 35 31 27 20 23 24 28 23 25 25 17 12 14 23
17 17 17 18 18 19 18 17 18 18 18 18 17 17 17 16 15 13 18 15 15 16 15 15 22 29 36 36 35 21 21 23 6 7 13 11 17 12 21 35 20 33 30 28 13 10 19 24 17 9 9 10 11 13
17 17 17 18 18 18 19 19 19 19 20 20 20 19 19 18 16 15 20 17 14 14 22 25 25 34 30 35 35 31 22 14 21 23 16 7 15 12 20 25 27 28 28 30 30 28 33 36 24 19 16 12 14 9
19 19 19 19 19 19 20 20 20 20 21 22 22 21 20 20 19 17 19 17 11 10 12 21 24 25 27 29 32 34 37 25 17 13 18 17 21 13 22 20 24 16 8 7 26 26 27 42 30 20 17 12 15 17
19 20 21 21 21 21 21 21 21 21 22 23 24 24 22 21 20 19 20 19 22 16 11 17 26 38 32 32 25 27 28 27 14 10 10 17 13 15 23 25 36 23 30 22 26 21 16 22 19 10 10 16 16 16
20 20 20 21 21 21 22 22 23 23 24 25 25 25 24 21 18 10 7 7 16 13 5 7 11 24 18 4 8 16 17 13 7 7 9 10 20 12 7 14 22 22 18 13 27 18 22 25 12 7 14 14 15 6
22 21 21 21 21 21 22 23 24 24 25 26 28 28 27 23 16 8 8 7 11 7 2 8 8 1 4 1 3 7 11 6 6 5 7 11 13 5 18 36 21 25 25 18 18 20 16 19 14 11 13 16 15 11
21 21 22 22 23 23 23 22 23 25 26 27 28 30 31 27 24 17 26 27 14 5 5 5 8 5 5 4 4 2 4 4 8 5 5 12 11 11 12 19 18 19 20 23 14 11 18 19 17 22 6 5 13 14
22 21 22 21 22 23 22 23 23 24 27 29 31 36 17 8 7 1 5 13 21 13 5 7 8 15 7 4 3 3 5 6 6 8 9 8 9 13 14 18 22 19 13 16 15 20 25 16 25 3 5 5 8 12
21 21 20 22 21 21 21 22 23 23 27 35 17 6 3 1 12 4 4 6 8 7 7 10 13 20 5 3 3 3 6 5 5 11 7 8 20 27 25 23 21 15 15 17 18 17 16 13 6 6 6 7 9 8
20 21 20 21 21 20 20 20 20 20 26 5 4 3 9 16 5 6 6 9 10 6 8 8 15 13 4 5 3 4 3 4 4 6 10 6 6 7 10 8 3 6 11 12 16 14 12 10 5 7 16 17 16 14
21 20 20 19 20 19 18 18 18 9 6 10 14 16 7 5 7 7 6 7 9 8 7 6 6 7 4 4 4 5 4 3 5 6 3 4 3 7 7 6 7 7 7 10 13 10 10 8 17 17 19 20 19 16
21 20 19 19 19 20 17 16 16 10 15 13 9 5 5 7 10 8 8 6 6 5 4 4 6 3 5 4 5 4 4 5 4 3 4 3 8 6 5 5 4 4 9 12 12 14 20 21 21 19 20 18 19 21
20 19 20 18 20 22 20 14 8 7 6 6 7 8 8 8 9 11 15 11 4 1 5 6 5 4 5 5 2 4 3 6 4 4 1 7 8 4 4 6 4 10 12 14 15 18 18 20 21 19 19 16 17 19
19 19 20 21 18 10 9 3 7 10 5 5 7 7 12 13 12 6 6 4 2 4 6 6 6 6 6 4 4 4 4 4 5 2 4 8 8 7 8 8 8 10 11 12 12 15 17 18 19 19 16 15 14 17
20 19 17 7 3 9 11 10 11 9 5 7 9 12 8 11 8 6 5 9 8 7 5 6 5 3 6 4 6 6 3 4 1 4 3 7 10 8 9 8 7 8 11 12 12 13 14 14 15 16 14 12 12 14
15 11 3 10 10 11 15 10 4 6 8 8 9 13 18 16 10 8 11 13 13 11 12 5 5 8 4 4 4 5 5 3 4 3 2 4 10 10 9 9 9 9 11 12 12 12 14 14 13 13 15 12 13 13
16 15 6 5 12 11 15 8 5 7 13 17 19 15 9 12 15 14 13 14 15 15 14 12 4 5 4 7 12 5 4 3 4 3 3 3 7 8 9 9 8 10 12 11 11 10 9 10 11 10 11 11 13 12
15 16 18 18 12 6 4 6 12 7 10 11 13 17 19 16 15 15 14 15 18 13 10 4 7 9 13 11 6 3 9 8 6 4 4 3 6 8 10 12 12 11 11 11 11 8 8 9 9 9 8 8 10 10
20 20 20 20 16 5 6 7 12 11 9 10 15 18 19 17 16 15 15 16 17 18 14 8 10 10 4 7 4 6 9 13 11 9 8 7 7 9 10 10 9 9 9 10 10 10 10 10 9 9 8 9 12 11
18 20 17 16 18 16 7 7 13 9 11 19 18 19 17 14 18 18 17 17 16 19 16 14 10 8 1 1 3 8 12 12 12 10 10 9 9 9 8 9 9 8 9 7 8 8 7 8 9 8 8 8 10 11
19 19 17 16 6 7 11 12 12 16 20 18 22 18 13 15 16 15 13 16 20 16 14 13 12 9 8 7 7 10 12 9 12 17 14 9 10 10 9 8 8 7 7 6 7 7 8 9 10 7 9 8 9 10
19 17 7 5 7 8 9 13 21 22 22 24 22 24 14 11 9 10 8 14 13 12 14 12 12 10 11 11 10 12 15 13 13 14 13 10 10 10 10 9 10 10 8 6 7 8 9 11 11 10 10 9 9 9
16 8 10 7 10 6 6 12 15 19 17 22 23 25 23 14 11 7 7 16 14 16 15 15 11 9 9 11 13 11 10 11 16 13 12 14 12 11 11 9 8 7 7 7 7 9 10 9 11 11 10 10 10 9
6 6 6 7 6 7 7 9 18 20 8 16 23 22 19 10 7 6 4 7 10 13 13 12 11 11 13 10 9 9 3 14 15 12 10 12 12 12 12 10 8 5 10 10 9 9 9 10 9 10 10 9 10 10
4 5 5 5 4 9 7 10 9 14 15 7 6 6 11 14 6 5 2 13 8 9 6 6 9 8 7 9 11 8 6 14 17 13 9 9 13 14 13 13 11 7 6 10 11 9 9 9 10 11 9 9 9 9
3 3 1 2 6 9 6 5 8 6 5 4 5 2 3 5 2 4 5 13 9 11 10 9 3 8 12 13 12 10 7 13 15 13 12 15 14 12 9 10 12 5 7 8 8 9 10 10 9 8 8 9 9 10
4 6 5 8 8 6 5 3 5 5 6 9 12 4 4 7 7 6 7 7 7 9 12 15 14 15 15 13 11 10 13 18 20 17 17 16 14 13 13 11 10 10 9 8 6 3 3 8 11 11 11 11 10 11
3 9 6 5 5 4 3 5 6 6 8 7 8 5 4 6 13 9 8 9 10 11 12 12 12 13 15 16 17 14 9 9 15 16 14 11 9 8 9 9 8 6 5 4 5 4 2 2 1 3 5 7 9 11
6 7 4 3 3 3 4 5 6 8 8 4 5 6 6 5 12 16 13 12 14 15 14 14 13 13 14 14 14 16 16 16 17 7 12 12 9 8 6 6 6 5 4 3 2 3 2 2 1 1 2 3 3 3
6 5 4 4 3 5 6 5 4 5 5 8 11 13 9 5 7 18 19 16 13 14 15 16 17 16 15 12 10 11 12 13 16 17 15 13 11 9 6 5 4 3 3 2 1 0 1 2 1 0 1 3 4 5
4 5 5 3 3 6 4 5 3 3 4 3 3 10 9 6 6 8 16 15 16 17 16 13 13 15 14 14 15 13 14 12 12 13 13 11 9 6 5 5 4 3 3 2 2 2 3 3 1 1 1 3 5 6
3 3 5 5 4 4 5 5 2 4 5 3 7 10 10 5 6 5 6 13 13 12 12 11 11 11 12 12 12 12 12 12 12 13 13 11 10 8 7 6 5 5 6 6 7 5 4 4 4 6 7 9 10 10
Wind_Direction
302 308 308 307 307 308 310 312 313 314 313 310 308 305 303 300 295 286 275 283 258 263 262 256 261 265 265 258 263 270 288 250 228 230 236 238 252 251 258 256 255 257 260 250 224 237 237 250 253 231 244 278 314 314
297 300 303 307 308 307 306 306 304 304 304 305 304 302 299 296 294 287 277 269 265 257 264 270 261 259 252 257 264 261 256 258 248 262 232 231 237 243 250 263 259 257 252 257 221 227 234 253 239 277 236 257 273 316
289 294 297 300 301 304 305 306 307 305 303 301 300 300 299 297 293 278 277 283 284 273 273 254 258 257 247 245 246 254 254 239 242 232 250 261 247 238 248 258 265 261 265 265 264 249 256 272 239 253 254 258 276 236
286 288 290 293 296 300 302 303 304 305 305 303 298 296 296 296 294 286 277 273 255 268 273 273 268 269 250 241 232 231 243 253 263 254 237 235 246 257 267 281 280 274 316 288 294 262 237 251 241 244 257 275 288 282
291 289 288 289 291 294 295 298 301 302 303 304 301 296 294 294 295 291 272 261 235 222 266 291 307 284 261 254 241 233 231 236 236 220 225 238 242 253 261 266 260 252 256 257 262 281 267 286 283 302 269 247 247 242
299 296 293 291 291 292 293 293 295 298 301 302 301 297 294 293 297 298 305 267 229 208 275 290 284 284 263 257 288 228 230 243 199 204 235 251 255 266 272 253 263 255 261 283 282 298 307 293 285 274 240 225 228 121
302 304 303 298 296 295 296 295 294 294 298 300 300 297 292 289 275 242 237 343 146 128 244 276 277 217 35 73 257 246 231 198 189 211 224 251 249 240 248 255 279 277 288 282 244 285 308 294 273 291 267 225 182 118
306 301 299 300 302 300 297 296 296 297 298 298 297 294 293 287 277 252 244 242 170 222 209 258 263 246 181 220 249 203 190 183 195 226 230 230 244 227 259 265 268 271 273 283 220 235 257 267 281 273 277 157 130 158
306 302 301 302 297 298 301 301 300 301 302 298 297 296 288 228 223 162 15 186 192 223 246 229 261 293 180 227 208 212 201 224 196 215 222 213 224 229 247 262 272 280 310 319 306 235 248 234 264 256 257 190 183 186
306 305 303 303 304 302 296 304 306 305 307 298 297 227 222 260 342 284 158 206 208 218 227 250 257 262 287 288 242 242 200 229 234 220 182 219 240 247 252 260 268 293 296 299 297 289 279 279 257 228 206 182 139 140
304 303 302 303 303 303 302 299 308 312 298 288 311 312 327 339 282 227 227 209 202 225 206 234 235 250 205 265 298 258 280 252 249 184 197 224 251 285 317 284 341 331 330 332 321 322 343 306 227 123 93 102 108 102
301 301 303 304 306 304 302 297 306 305 285 305 304 291 279 250 219 227 222 220 217 240 172 226 228 221 200 189 241 239 255 246 264 149 249 255 62 25 33 357 339 327 320 321 326 339 9 79 91 96 88 87 90 90
301 301 298 301 302 306 303 295 300 287 291 270 187 232 221 219 231 225 214 224 235 176 213 227 251 199 197 209 251 265 254 260 291 239 246 52 107 72 31 341 354 34 43 54 61 52 59 64 72 87 91 86 92 90
297 297 297 298 295 302 290 281 278 292 275 242 218 231 227 210 227 215 233 246 235 186 232 245 252 230 202 210 255 261 281 285 260 241 273 89 85 74 27 55 85 77 67 70 66 67 70 79 79 78 79 82 99 102
296 297 298 291 288 309 338 276 247 281 269 254 237 238 227 231 242 266 290 268 270 256 251 257 266 229 210 215 222 260 250 255 250 315 70 100 99 90 75 90 91 94 85 79 76 80 79 80 81 78 75 81 91 105
298 302 292 283 261 292 302 286 266 249 236 233 240 244 238 255 267 241 239 246 243 213 247 249 259 229 232 224 210 217 239 248 16 67 94 108 119 107 98 83 79 83 97 102 96 94 94 94 100 102 95 92 96 101
302 277 241 270 288 288 280 267 249 230 225 233 234 231 248 258 247 244 238 244 243 216 218 238 227 220 206 230 239 221 241 354 93 101 101 58 143 138 123 115 106 97 99 102 108 106 106 113 113 108 105 105 103 104
282 285 286 328 312 299 266 211 244 245 244 241 255 253 238 242 253 254 253 248 235 229 222 226 279 245 226 247 265 350 89 100 99 116 109 103 106 128 146 139 131 117 106 109 115 122 132 116 102 101 107 112 111 111
294 306 306 301 300 296 267 223 217 266 247 256 262 247 245 247 238 245 248 245 242 229 217 231 230 233 243 252 266 120 138 156 154 138 120 108 124 125 111 109 112 119 132 139 139 133 116 109 116 120 128 130 122 124
284 280 274 271 265 250 241 241 228 234 263 278 268 255 258 255 241 239 241 240 235 229 224 221 231 259 300 300 3 166 156 126 138 137 136 128 128 128 135 142 137 138 129 111 99 104 105 108 114 126 131 131 132 130
270 274 274 269 247 231 263 257 256 255 259 255 265 270 272 254 242 236 239 227 223 221 220 222 234 242 106 85 168 127 133 159 159 159 155 154 160 156 148 134 138 134 127 135 141 128 147 138 128 123 128 110 107 124
259 269 275 265 245 230 232 229 248 264 275 280 282 282 284 258 246 238 230 229 228 219 219 226 229 219 181 194 194 146 165 158 102 121 136 145 145 136 136 140 133 126 128 140 142 146 122 120 124 135 124 127 115 116
256 254 251 247 247 229 253 238 247 248 250 258 272 279 267 287 261 221 231 227 227 224 216 225 223 205 188 184 170 155 166 167 142 137 150 156 144 138 135 133 131 134 138 142 139 136 123 127 129 129 129 145 139 124
237 214 197 219 216 244 243 248 254 260 264 248 252 256 259 268 264 233 238 220 209 205 208 205 211 200 164 184 161 173 170 153 130 138 141 130 132 138 133 129 130 141 147 141 139 128 132 131 137 140 141 143 145 150
258 174 201 193 225 223 238 258 263 266 269 285 261 254 253 214 251 228 234 212 201 191 191 188 194 203 186 172 153 119 55 142 132 134 153 142 136 130 130 137 134 113 133 134 137 140 142 143 145 149 156 161 156 161
214 192 219 218 226 238 240 251 254 255 253 240 262 281 237 233 245 295 58 358 2 66 75 177 173 152 121 129 127 113 84 124 115 100 72 118 130 134 137 137 128 90 84 141 142 151 154 160 162 162 167 178 178 172
225 22 244 311 285 295 296 306 315 285 267 266 323 267 292 217 199 63 22 7 3 18 28 31 83 140 115 99 90 80 76 105 108 103 90 74 66 63 99 131 121 88 88 109 141 156 162 172 181 183 182 187 196 196
26 16 343 331 335 296 286 341 347 21 3 341 327 325 30 31 26 14 7 6 12 42 40 45 57 81 85 86 87 90 95 99 96 96 87 76 70 69 74 78 76 72 71 68 66 71 150 180 193 194 193 196 199 202
21 358 330 355 332 307 53 29 29 26 346 337 349 24 53 34 4 18 34 40 44 59 62 62 62 68 73 65 57 48 55 119 139 142 131 125 111 63 53 62 68 69 63 67 78 75 59 63 116 199 206 211 205 198
358 343 328 347 306 341 77 18 348 325 329 321 101 104 73 49 18 9 13 47 55 56 55 54 54 68 75 78 71 54 35 38 40 75 138 119 106 102 78 71 67 58 54 57 34 6 16 38 130 208 240 247 235 222
330 341 343 320 306 39 14 327 316 49 35 67 100 117 120 120 59 21 13 36 62 66 58 51 48 44 50 56 85 84 69 42 50 63 76 84 85 84 84 77 57 48 40 34 36 184 337 352 339 359 258 243 236 226
330 3 344 290 305 358 0 342 352 89 69 62 113 108 110 97 77 37 9 24 45 50 50 54 60 61 57 60 62 67 71 67 51 44 51 67 75 72 79 72 61 38 33 85 127 161 185 210 279 45 55 131 90 60
324 17 7 335 321 337 9 317 143 88 73 57 33 68 68 57 65 64 61 41 45 46 50 54 58 59 59 67 81 84 82 81 75 71 69 63 46 33 49 32 17 21 30 46 68 88 111 126 107 91 82 85 76 63